UVSQ-SAT (47438 NORAD) Tracking and Keplerian Element Data

This shows tracking and keplerian element data for the satellite.

Feedback or suggestion? Click here.




ElementValue
Catalog47438
NameUVSQ-SAT
Epoch Orbit10095
Epoch Day324.65419013
Epoch Year2022
RAAN20.476
Inclination97.4186
Eccentricity0.0012891
Argument of Perigee92.76
Mean Anonmoly267.511
Mean Motion15.17798273
Decay Rate6.709E-05
L11 47438U 21006AB 22324.65419013 .00006709 00000+0 33445-3 0 9990
L22 47438 97.4186 20.4760 0012891 92.7600 267.5110 15.17798273100954



Live tracking and technical data element details for UVSQ-SAT (NORAD 47438). UVSQ-SAT can be tracked NOW for your location showing map with azimuth and elevation plus other details from your city location.







IsCatalogInMostPopularTable: catalog: 47438, numindb: 101
Update: records affected: 1



GetName: 47438 UVSQ-SAT

Hit Count: updated at: Mon, 28 Nov 2022 04:41:44 GMT